Weather History for KMPV - October, 2012

Change the Weather History Date:

Monday, October 22, 2012

  Actual Average Record
Temperature  
Mean Temperature 48 °F 44 °F  
Max Temperature 56 °F 54 °F 80 °F (2007)
Min Temperature 40 °F 33 °F 15 °F (1959)
Degree Days  
Heating Degree Days 17 21  
Month to date heating degree days 358 394  
Since 1 July heating degree days 681 749  
Cooling Degree Days 0 0  
Month to date cooling degree days 0 0  
Year to date cooling degree days 291 263  
Moisture  
Dew Point 39 °F    
Average Humidity 69    
Maximum Humidity 83    
Minimum Humidity 55    
Precipitation  
Precipitation T in 0.11 in 0.55 in ()
Month to date precipitation 1.74 2.51  
Year to date precipitation 27.65 30.43  
Sea Level Pressure  
Sea Level Pressure 29.98 in    
Wind  
Wind Speed 9 mph (NW)    
Max Wind Speed 25 mph    
Max Gust Speed 36 mph    
Visibility 10 miles    
Events Rain    
T = Trace of Precipitation, MM = Missing Value Source: NWS Daily Summary

Daily Weather History Graph

Daily Weather History Graph

Search for Another Location

Airport or City:

Trip Planner

Search our weather history database for the weather conditions in past years. The results will help you decide how hot, cold, wet, or windy it might be!

Date:

Astronomy

Oct. 22, 2012 Rise Set
Actual Time 7:14 AM EDT 5:54 PM EDT
Civil Twilight 6:44 AM EDT 6:23 PM EDT
Nautical Twilight 6:11 AM EDT 6:57 PM EDT
Astronomical Twilight 5:37 AM EDT 7:30 PM EDT
Moon 2:13 PM EDT (10/22) No Moon Set
Length of Visible Light 11h 38m
Length of Day
10h 39m
First Quarter, 56% of the Moon is Illuminated
Oct 22
First Quarter
Oct 29
Full
Nov 6
Last Quarter
Nov 13
New
Nov 20
First Quarter

Hourly Weather History & Observations

Time (EDT) Temp. Windchill Dew Point Humidity Pressure Visibility Wind Dir Wind Speed Gust Speed Precip Events Conditions
12:51 AM 46.4 °F 40.7 °F 39.2 °F 76% 29.92 in 10.0 mi WNW 12.7 mph 31.1 mph N/A Rain Light Rain
1:51 AM 46.0 °F 43.1 °F 39.0 °F 76% 29.93 in 10.0 mi WNW 5.8 mph - 0.00 in   Overcast
2:51 AM 44.6 °F - 37.4 °F 76% 29.91 in 10.0 mi Calm Calm - N/A   Scattered Clouds
3:51 AM 45.0 °F 42.6 °F 37.9 °F 76% 29.95 in 10.0 mi Variable 4.6 mph - N/A   Mostly Cloudy
4:51 AM 45.0 °F - 37.9 °F 76% 29.96 in 10.0 mi Calm Calm - N/A   Overcast
5:24 AM 44.6 °F 42.2 °F 39.2 °F 81% 29.94 in 10.0 mi NW 4.6 mph - N/A   Overcast
5:51 AM 45.0 °F 41.8 °F 39.0 °F 80% 29.96 in 10.0 mi NW 5.8 mph - N/A   Overcast
6:51 AM 46.4 °F 42.4 °F 39.2 °F 76% 29.95 in 10.0 mi NNW 8.1 mph 18.4 mph N/A   Overcast
7:51 AM 46.0 °F - 39.0 °F 76% 29.99 in 10.0 mi Calm Calm - N/A   Overcast
8:13 AM 46.4 °F - 39.2 °F 76% 29.97 in 10.0 mi Calm Calm - N/A   Mostly Cloudy
9:51 AM 48.0 °F - 39.9 °F 74% 29.99 in 10.0 mi NW 11.5 mph 18.4 mph N/A   Scattered Clouds
10:51 AM 51.8 °F - 41.0 °F 67% 29.97 in 10.0 mi NNW 10.4 mph 21.9 mph N/A   Scattered Clouds
11:51 AM 53.1 °F - 41.0 °F 64% 29.98 in 10.0 mi NW 21.9 mph 32.2 mph N/A   Partly Cloudy
12:51 PM 54.0 °F - 42.1 °F 64% 29.98 in 10.0 mi NW 18.4 mph 31.1 mph N/A   Mostly Cloudy
1:51 PM 54.0 °F - 41.0 °F 62% 29.98 in 10.0 mi NW 18.4 mph 28.8 mph N/A   Scattered Clouds
2:51 PM 55.0 °F - 39.9 °F 57% 29.98 in 10.0 mi NW 17.3 mph 31.1 mph N/A   Partly Cloudy
3:51 PM 54.0 °F - 39.0 °F 57% 30.00 in 10.0 mi NW 12.7 mph 24.2 mph N/A   Scattered Clouds
4:51 PM 53.1 °F - 39.0 °F 59% 30.00 in 10.0 mi NW 16.1 mph 24.2 mph N/A   Clear
5:51 PM 51.8 °F - 39.2 °F 62% 30.00 in 10.0 mi NW 11.5 mph 18.4 mph N/A   Clear
6:51 PM 50.0 °F - 39.0 °F 66% 30.04 in 10.0 mi NNW 6.9 mph - N/A   Clear
7:51 PM 50.0 °F - 39.0 °F 66% 30.06 in 10.0 mi Variable 3.5 mph - N/A   Clear
8:51 PM 48.0 °F - 39.0 °F 71% 30.06 in 10.0 mi NNW 4.6 mph - N/A   Clear
9:51 PM 48.0 °F - 39.9 °F 74% 30.07 in 10.0 mi West 5.8 mph - N/A   Clear
10:51 PM 48.2 °F - 41.0 °F 76% 30.05 in 10.0 mi WNW 9.2 mph - N/A   Clear